This is the latest recevied weather packets stored in our database for station/object KD2RHT-13. If no packets are shown the sender has not sent any weather packets the latest 1 day(s).
| Time | Temp. | Humidity | Pressure | Rain* | Wind** | Luminosity | Snow |
|---|---|---|---|---|---|---|---|
| 1778058373 | 7.22° C | 99% | 1011.1 hPa | 3.05 mm | - | 0 W/m² | - |
| 1778057766 | 7.22° C | 99% | 1010.7 hPa | 0 mm | - | 0 W/m² | - |
| 1778057159 | 7.22° C | 99% | 1010.4 hPa | 0 mm | - | 0 W/m² | - |
| 1778055642 | 7.22° C | 99% | 1010.7 hPa | 1.78 mm | - | 0 W/m² | - |
| 1778054432 | 7.22° C | 99% | 1010.7 hPa | 1.27 mm | - | 0 W/m² | - |
| 1778054130 | 7.22° C | 99% | 1010.4 hPa | 0 mm | - | 0 W/m² | - |
| 1778053524 | 7.22° C | 99% | 1011.1 hPa | 0 mm | - | 0 W/m² | - |
| 1778053221 | 7.22° C | 99% | 1010.7 hPa | 0 mm | - | 0 W/m² | - |
| 1778052919 | 7.22° C | 99% | 1010.4 hPa | 0 mm | - | 0 W/m² | - |
| 1778050799 | 8.89° C | 99% | 1010.7 hPa | 0 mm | - | 0 W/m² | - |
| 1778050497 | 8.89° C | 99% | 1011.1 hPa | 1.78 mm | - | 0 W/m² | - |
| 1778049890 | 8.89° C | 99% | 1010.4 hPa | 0 mm | - | 0 W/m² | - |
| 1778049586 | 8.89° C | 99% | 1011.1 hPa | 0 mm | - | 0 W/m² | - |
| 1778048981 | 8.89° C | 99% | 1010.7 hPa | 0 mm | - | 0 W/m² | - |
| 1778048072 | 8.89° C | 99% | 1011.1 hPa | 1.27 mm | - | 0 W/m² | - |
| 1778047468 | 8.89° C | 99% | 1011.1 hPa | 3.05 mm | - | 0 W/m² | - |
| 1778046558 | 8.89° C | 99% | 1011.4 hPa | 0 mm | - | 0 W/m² | - |
| 1778046255 | 9.44° C | 99% | 1011.1 hPa | 0 mm | - | 0 W/m² | - |
| 1778045951 | 8.89° C | 99% | 1011.7 hPa | 0 mm | - | 0 W/m² | - |
| 1778045650 | 8.89° C | 99% | 1011.7 hPa | 0 mm | - | 0 W/m² | - |
| 1778045348 | 8.89° C | 99% | 1011.7 hPa | 0 mm | - | 0 W/m² | - |
| 1778044440 | 8.89° C | 99% | 1011.7 hPa | 0 mm | - | 0 W/m² | - |
| 1778044137 | 8.89° C | 99% | 1011.7 hPa | 0 mm | - | 0 W/m² | - |
| 1778043228 | 8.89° C | 99% | 1012.1 hPa | 1.78 mm | - | 0 W/m² | - |
| 1778042925 | 8.89° C | 99% | 1012.1 hPa | 1.78 mm | - | 0 W/m² | - |
* Rain latest hour (hover to see other rain measurements)
** Current wind speed in m/s (hover to see current wind gust speed)